Printer-friendly version

IAU Minor Planet Center

Minor Planet Center

MPEC 2006-B68 : P/2000 C1 = P/2006 A3 (Hergenrother)

The following Minor Planet Electronic Circular may be linked-to from your own Web pages, but must not otherwise be redistributed electronically.


Read MPEC 2006-B67 Read MPEC 2006-B69


M.P.E.C. 2006-B68                                Issued 2006 Jan. 28, 00:13 UT

     The Minor Planet Electronic Circulars contain information on unusual
         minor planets and routine data on comets.  They are published
   on behalf of Commission 20 of the International Astronomical Union by the
          Minor Planet Center, Smithsonian Astrophysical Observatory,
                          Cambridge, MA 02138, U.S.A.

                  Supported in part by the Brinson Foundation
                  Supported in part by the TABASGO Foundation
             Prepared using the Tamkin Foundation Computer Network

                              MPC@CFA.HARVARD.EDU
          URL http://cfa-www.harvard.edu/iau/mpc.html  ISSN 1523-6714

                     P/2000 C1 = P/2006 A3 (Hergenrother)

Observations:
    PK06A030  C2006 01 06.22144 05 13 36.01 +17 22 15.6          21.4 T EB068G96
    PK06A030  C2006 01 06.22962 05 13 35.68 +17 22 15.5          21.4 T EB068G96
    PK06A030  C2006 01 06.23777 05 13 35.25 +17 22 16.7          21.3 T EB068G96
    PK06A030  C2006 01 06.24589 05 13 34.86 +17 22 17.2          21.4 T EB068G96
    PK06A030  C2006 01 07.23571 05 12 50.22 +17 23 38.8          20.7 T EB068G96
    PK06A030  C2006 01 07.24366 05 12 49.82 +17 23 40.4          20.4 T EB068G96
    PK06A030  C2006 01 07.25161 05 12 49.53 +17 23 40.4          19.9 T EB068G96
    PK06A030  C2006 01 07.25957 05 12 49.10 +17 23 40.7                 EB068G96
    PK06A030  C2006 01 27.19440 05 02 19.00 +18 01 00.8          21.5 T EB068G96
    PK06A030  C2006 01 27.20177 05 02 18.90 +18 01 01.6          20.8 T EB068G96
    PK06A030  C2006 01 27.20912 05 02 18.72 +18 01 03.2          20.0 T EB068G96

Observer details:
G96 Mt. Lemmon Survey.  Observer E. J. Christensen.  Measurers E. C. Beshore,
    E. J. Christensen, G. J. Garradd, A. D. Grauer, R. E. Hill, R. A. Kowalski,
    S. M. Larson, R. H. McNaught.  1.5-m reflector + CCD.

Orbital elements:
    P/2000 C1 = P/2006 A3 (Hergenrother)
Epoch 2006 Nov. 1.0 TT = JDT 2454040.5
T 2006 Nov. 6.68276 TT                                  MPC
q   2.0882415            (2000.0)            P               Q
n   0.14887974     Peri.   51.29125     -0.99602104     -0.02687593
a   3.5257024      Node   127.00619     -0.00332155     -0.94158449
e   0.4077091      Incl.    6.10793     +0.08905649     -0.33570274
P   6.62
From 195 observations 2000 Jan. 4-2006 Jan. 27, mean residual 0".82.

    P/2000 C1 (Hergenrother)
Epoch 2000 Apr. 6.0 TT = JDT 2451640.5
T 2000 Mar. 19.85462 TT                                 MPC
q   2.0954991            (2000.0)            P               Q
n   0.14859563     Peri.   51.16211     -0.99598368     -0.02846492
a   3.5301949      Node   127.04402     -0.00179017     -0.94159710
e   0.4064070      Incl.    6.10524     +0.08951702     -0.33553637
P   6.63
From 195 observations 2000 Jan. 4-2006 Jan. 27, mean residual 0".82.

Residuals in seconds of arc
000104 704  1.5+  0.5-    000211 349  0.1-  0.8+    000329 704  0.4+  0.4-
000104 704  1.0+  0.2+    000211 349  0.5-  0.6-    000329 704  0.7-  1.0+
000108 704  1.2+  0.5+    000212 888  0.1-  0.4-    000330 903  0.6+  0.0
000108 704  0.6-  0.5-    000212 888  0.1+  0.1+    000330 903  0.3+  1.1-
000108 704  1.6+  0.2-    000212 888  0.2-  0.2+    000330 903  0.1+  1.5-
000108 704  0.1+  0.7+    000215 372 (2.6-  0.1+)   000330 360  0.4+  0.3-
000202 703  0.1-  0.3+    000215 372 (2.9-  0.2+)   000330 360  0.4+  0.3-
000202 703  0.0   1.0+    000216 355  0.8-  1.1-    000331 170  0.3-  1.0-
000202 703  1.5-  1.6+    000216 355  0.7-  0.2-    000401 367  0.1+  0.3-
000202 703  1.3-  1.8+    000216 355  0.7+  0.4+    000401 367  0.1-  0.2-
000204 703  1.4-  1.2+    000228 355  1.1-  0.3+    000401 367  0.3-  0.0
000204 703  0.9-  0.7+    000228 355  1.0-  0.5+    000401 903  0.6+  1.5-
000204 703  0.9-  0.7+    000228 355  0.6-  0.4+    000401 903  0.0   1.5-
000204 703  1.0-  1.3+    000229 704  1.2+  0.7-    000402 704  0.7+  0.2+
000205 651  0.5-  0.2+    000229 704  0.1-  2.5+    000402 704  1.5+  1.0+
000205 651  0.4-  0.5+    000229 704  0.8+  0.7-    000402 704  0.7+  0.5+
000205 651  1.1-  0.3+    000229 704 (0.7-  3.2+)   000403 704  2.1+  1.4-
000205 651  0.7-  0.4+    000229 372  0.5+  0.9+    000403 704  1.7+  1.5+
000205 681  0.4+  0.9+    000229 360  0.1+  0.1-    000403 704  1.1+  1.7+
000205 681  0.4+  0.3+    000229 360  0.1-  0.3-    000403 704  0.7+  0.6+
000205 681  0.1+  0.1-    000301 900  0.0   0.0     000403 704  0.2-  1.2+
000205 422  0.9+  0.0     000301 900  0.4-  0.2-    000405 170  1.0-  1.6-
000205 422  0.1+  0.1-    000301 402  0.2+  0.5-    000406 170  1.0+  0.3-
000205 422  0.1-  0.3+    000301 402  0.3+  0.5-    000407 349  1.0-  0.5-
000205 422  0.4-  0.2+    000301 402  0.2-  0.5-    000407 903 (1.3-  2.6-)
000205 422  0.1+  0.4+    000302 372  0.3+  1.0+    000407 349  1.9-  1.3+
000205 046  0.2+  0.8-    000304 118  0.2-  0.0     000407 903  2.2-  0.1-
000205 046  0.9+  0.0     000304 118  0.1-  0.2+    000407 903  1.6+  0.3+
000205 046  0.1+  0.6-    000308 355  1.2-  0.0     000408 704  2.2+  0.3-
000205 046  0.2-  0.4+    000308 355  0.7-  0.4-    000408 704  1.4+  0.7+
000205 046  0.7-  0.2+    000308 355  0.9-  0.3+    000408 704  0.5+  1.0+
000206 557  0.3+  0.2+    000308 903  0.3+  1.2-    000408 704  1.5+  1.0+
000206 557  0.1+  0.3+    000308 903  0.1+  0.9+    000408 704  1.4-  0.4+
000206 850  0.4-  0.3-    000308 349  0.8+  0.3+    000411 349  0.7-  1.6+
000206 850  0.1+  0.1+    000308 349  0.9+  0.8-    000411 349  1.9-  0.1-
000206 704  0.3-  0.4+    000308 349  1.3+  0.4+    000411 349  1.0-  1.6+
000206 850  0.3+  0.4+    000310 170  0.9-  0.2-    000423 349  2.0-  0.5-
000206 704  0.2+  0.5+    000312 703  2.2-  0.3+    000423 349  1.3-  1.3-
000206 704  0.2+  0.7+    000312 703 (2.6-  0.6+)   000424 360  0.5+  0.1+
000206 704  0.7+  0.1+    000312 703  0.3-  0.0     000424 360  0.7+  0.3+
000206 681  0.1-  0.6+    000312 703  2.1-  0.0     000427 699  1.6+  1.1-
000206 681  0.5+  0.3-    000312 704  0.4+  0.3-    000427 699  1.6+  0.9-
000206 422  1.0-  0.2+    000312 704  0.1+  0.4+    000427 699  2.1+  2.4-
000206 422  0.0   0.3-    000312 704  0.5+  0.3+    000427 699  1.6+  2.4-
000206 422  0.4+  0.7+    000312 704  0.1-  0.6+    000501 695  0.0   0.2+
000209 355  1.0+  0.0     000312 903  1.5-  1.6-    000501 695  0.1-  0.2+
000209 355  1.0+  0.9+    000312 903  0.7-  1.0-    000508 360  0.3+  0.2+
000209 355  0.5+  0.0     000313 360  0.3+  0.2-    000508 360  0.2-  0.1-
000209 349  1.6-  0.4-    000313 360  0.3+  0.4-    000526 152  1.2+  0.2+
000209 372  0.4-  0.3+    000314 I02  0.2+  0.2-    000526 152  1.4-  2.0-
000209 349  1.8-  0.1+    000314 900  0.2+  0.0     000529 691  1.6-  0.7+
000209 372  0.3-  0.2+    000314 900  0.8-  0.2-    000529 691  1.0+  0.9+
000210 900  0.1-  0.2+    000314 903 (0.3+  2.7-)   000529 691  0.7+  0.1-
000210 900  0.3-  0.2-    000314 903  0.4+  1.4-    000606 360  0.5-  0.4+
000210 360  0.5+  0.1-    000317 903  1.1-  0.6-    000606 360  0.1+  0.7+
000210 360  0.2+  0.1-    000317 903  1.8-  0.8-    000606 360  1.1-  0.9+
000211 704  0.9+  1.6-    000317 900  0.3-  0.1+    060106 G96  0.4+  0.1+
000211 704  1.6+  0.7-    000317 900  0.7-  0.1+    060106 G96  1.2+  0.7-
000211 704  1.6-  0.0     000325 355  0.3+  0.4-    060106 G96  0.5+  0.2-
000211 704  1.0-  0.2-    000325 355  0.6+  0.3-    060106 G96  0.4+  0.3-
000211 658  0.3+  0.3-    000325 355  0.8+  0.3-    060107 G96  0.6-  0.4-
000211 658  0.2+  0.3+    000328 704  0.9+  1.5-    060107 G96  1.1-  0.5+
000211 658  0.5+  0.1+    000328 704  1.0-  0.2+    060107 G96  0.0   0.2-
000211 372  0.5-  0.4+    000328 704  0.7+  1.0-    060107 G96  0.9-  0.5-
000211 411  0.9+  0.4-    000328 704  0.3-  0.4-    060127 G96  0.0   0.1-
000211 411  0.8+  0.1-    000329 704  1.2+  0.5-    060127 G96  0.6+  0.3-
000211 411  0.6+  0.1+    000329 704  0.3-  0.3+    060127 G96  0.1-  0.2+

Ephemeris:
    P/2000 C1 (Hergenrother)            [m1 = 14.0 + 5 log(Delta) + 10 log(r)]
Date    TT    R. A. (2000) Decl.     Delta      r     Elong.  Phase   m1    m2
2006 01 25    05 03.00   +17 56.0    2.135    2.883   131.4    14.8  20.2
2006 02 04    05 00.95   +18 20.6    2.207    2.842   120.9    17.3  20.3
2006 02 14    05 01.64   +18 49.0    2.290    2.801   111.1    19.2  20.3
2006 02 24    05 05.01   +19 20.0    2.382    2.761   101.8    20.5  20.3
2006 03 06    05 10.90   +19 52.5    2.477    2.720    93.3    21.4  20.3
2006 03 16    05 19.09   +20 24.9    2.573    2.680    85.2    21.7  20.3
2006 03 26    05 29.34   +20 55.6    2.666    2.641    77.7    21.7  20.3
2006 04 05    05 41.43   +21 23.2    2.755    2.602    70.7    21.3  20.4
2006 04 15    05 55.14   +21 46.1    2.838    2.563    64.1    20.6  20.4
2006 04 25    06 10.26   +22 03.0    2.914    2.526    57.8    19.7  20.3
2006 05 05    06 26.64   +22 12.7    2.981    2.489    51.9    18.6  20.3
2006 05 15    06 44.08   +22 14.1    3.040    2.452    46.2    17.3  20.3
2006 05 25    07 02.45   +22 06.2    3.091    2.417    40.9    15.9  20.3
2006 06 04    07 21.59   +21 48.5    3.132    2.383    35.7    14.4  20.3
2006 06 14    07 41.38   +21 20.2    3.165    2.350    30.8    12.8  20.2

Gareth V. Williams           (C) Copyright 2006 MPC           M.P.E.C. 2006-B68

Read MPEC 2006-B67 Read MPEC 2006-B69


Our Web policy. Index to the CBAT/MPC/ICQ pages.


Valid HTML 4.01!